[[{"header":{"parameterUnit":"m.s-1","parameterCategory":1,"la1":30.2992,"la2":30.254,"lo1":-89.0895,"lo2":-89.0443,"dy":0.0025,"dx":0.0025,"nx":19,"ny":19,"refTime":"2026-03-13T09:00:00:Z","depth":0,"parameterNumber":2,"parameterNumberName":"U-component_of_WINDS"},"data":[0,0,0,-0.711,-0.7112,-0.7178,-0.7178,-0.7265,-0.7266,0,0,0,0,0,0,0,0,0,0,0,-0.709,-0.7091,-0.711,-0.7112,-0.7178,-0.7178,-0.7265,-0.7266,0,0,0,0,0,0,0,0,0,0,0,-0.709,-0.7091,-0.7091,-0.7112,-0.7178,-0.7178,-0.7265,-0.7214,0,0,0,0,0,0,0,0,0,0,-0.715,-0.713,-0.709,-0.7091,-0.7113,-0.7178,-0.7178,-0.7212,-0.7218,-0.7235,0,-0.7249,0,-0.7259,-0.7271,-0.7272,0,0,0,-0.7113,-0.7125,-0.7144,-0.7091,-0.7113,-0.7178,-0.7149,-0.7215,-0.7221,-0.7243,-0.725,-0.7253,-0.726,-0.7272,-0.7272,-0.7367,-0.7368,0,0,-0.7109,-0.7102,-0.7139,-0.7148,-0.7136,-0.7146,-0.7151,-0.7219,-0.7227,-0.7251,-0.7255,-0.7261,-0.7273,-0.7273,-0.7367,-0.7368,0,0,0,-0.7098,-0.7099,-0.7116,-0.7144,-0.7156,-0.7148,-0.7153,-0.7224,-0.723,-0.7256,-0.7262,-0.7273,-0.7274,-0.7367,-0.7367,-0.738,0,0,0,-0.7096,-0.7093,-0.7114,-0.7111,-0.7154,-0.7191,-0.7157,-0.7226,-0.7234,-0.7262,-0.7273,-0.7275,-0.7366,-0.7367,-0.7379,-0.7387,0,0,0,-0.7086,-0.7092,-0.7101,-0.711,-0.7138,-0.719,-0.72,-0.7228,-0.7237,-0.7272,-0.7275,-0.7366,-0.7367,-0.7377,-0.7386,-0.7411,0,0,0,-0.7074,-0.7111,-0.7101,-0.7145,-0.7138,-0.7196,-0.7199,-0.7244,-0.7275,-0.7273,-0.7366,-0.7367,-0.7377,-0.7384,-0.741,-0.7431,-0.7439,0,0,-0.7117,-0.7116,-0.7143,-0.7136,-0.7194,-0.7187,-0.7248,-0.7284,-0.7294,-0.7343,-0.7345,-0.7379,-0.7385,-0.7411,-0.7486,-0.7492,0,0,0,-0.7154,-0.7173,-0.7191,-0.7219,-0.7247,-0.7272,-0.7299,-0.7313,-0.7354,-0.7317,-0.7395,-0.7399,-0.7414,-0.7425,-0.743,-0.7445,-0.7372,-0.7372,-0.7371,-0.7205,-0.7216,-0.7262,-0.7281,-0.7309,-0.7337,-0.7361,-0.7385,-0.7388,-0.7406,-0.7421,-0.7465,-0.7477,-0.7481,-0.7496,-0.7432,-0.7433,-0.7433,-0.7433,-0.7271,-0.73,-0.7303,-0.7349,-0.7361,-0.74,-0.7429,-0.743,-0.7469,-0.7454,-0.7469,-0.7452,-0.7488,-0.7501,-0.7434,-0.7434,-0.7433,-0.7433,-0.7433,-0.7306,-0.7322,-0.7337,-0.738,-0.7413,-0.7432,-0.7469,-0.7479,-0.7489,-0.7502,-0.752,-0.752,-0.7522,-0.751,-0.751,-0.751,-0.751,-0.751,-0.7511,-0.7337,-0.7354,-0.7383,-0.7416,-0.7436,-0.7465,-0.7494,-0.7515,-0.7541,-0.7545,-0.7545,-0.7548,-0.7489,-0.7474,-0.7513,-0.7513,-0.7512,-0.7512,-0.7512,-0.74,-0.7388,-0.7433,-0.7453,-0.7494,-0.7526,-0.7538,-0.758,-0.7599,-0.7618,-0.7617,-0.7572,-0.7572,-0.7568,-0.7556,-0.7614,-0.7614,-0.7614,-0.7614,-0.7431,-0.7431,-0.7481,-0.7513,-0.7546,-0.7561,-0.7615,-0.7639,-0.7661,-0.7674,-0.7667,-0.7652,-0.7647,-0.7651,-0.7645,-0.7634,-0.771,-0.771,-0.771,-0.7471,-0.7476,-0.7518,-0.7539,-0.7572,-0.76,-0.7651,-0.769,-0.7713,-0.7714,-0.7685,-0.7681,-0.7657,-0.7648,-0.7649,-0.7639,-0.762,0,0]},{"header":{"parameterUnit":"m.s-1","parameterCategory":1,"la1":30.2992,"la2":30.254,"lo1":-89.0895,"lo2":-89.0443,"dy":0.0025,"dx":0.0025,"nx":19,"ny":19,"refTime":"2026-03-13T09:00:00:Z","depth":0,"parameterNumber":3,"parameterNumberName":"V-component_of_WINDS"},"data":[0,0,0,3.4413,3.4414,3.4474,3.4475,3.4555,3.4556,0,0,0,0,0,0,0,0,0,0,0,3.4399,3.44,3.4412,3.4414,3.4474,3.4475,3.4555,3.4556,0,0,0,0,0,0,0,0,0,0,0,3.4399,3.44,3.4401,3.4414,3.4474,3.4475,3.4555,3.4508,0,0,0,0,0,0,0,0,0,0,3.4448,3.4441,3.44,3.4401,3.4415,3.4474,3.4475,3.4505,3.451,3.453,0,3.4551,0,3.4555,3.4562,3.4562,0,0,0,3.441,3.4437,3.4449,3.4401,3.4415,3.4474,3.4446,3.4508,3.4514,3.4537,3.4552,3.4555,3.4556,3.4562,3.4563,3.4693,3.4694,0,0,3.4407,3.4412,3.4445,3.4453,3.4447,3.4444,3.4448,3.4512,3.4527,3.4552,3.4557,3.4558,3.4563,3.4564,3.4692,3.4693,0,0,0,3.44,3.441,3.4421,3.445,3.4461,3.4446,3.445,3.4524,3.4527,3.4557,3.4559,3.4563,3.4564,3.4691,3.4692,3.4735,0,0,0,3.4398,3.4406,3.4419,3.4423,3.446,3.4494,3.4462,3.4523,3.453,3.4558,3.4563,3.4565,3.469,3.4692,3.4732,3.4754,0,0,0,3.4394,3.4405,3.4416,3.4423,3.445,3.4493,3.4499,3.4524,3.4531,3.4562,3.4566,3.469,3.4692,3.473,3.475,3.4788,0,0,0,3.439,3.4454,3.4417,3.4488,3.4449,3.452,3.4499,3.4551,3.4583,3.4564,3.4691,3.4692,3.4729,3.4747,3.4785,3.4819,3.4835,0,0,3.4473,3.4464,3.4505,3.4474,3.4553,3.4511,3.4595,3.4619,3.4617,3.4667,3.467,3.4733,3.4749,3.4787,3.4925,3.4937,0,0,0,3.4533,3.4563,3.4582,3.4614,3.4635,3.4653,3.4664,3.4672,3.4715,3.4645,3.4759,3.4768,3.479,3.4806,3.4816,3.4833,3.4701,3.4701,3.47,3.4656,3.465,3.4717,3.4719,3.4749,3.4759,3.4783,3.4795,3.4781,3.4808,3.4822,3.4906,3.4925,3.4933,3.4951,3.4842,3.4842,3.4842,3.4842,3.4774,3.4813,3.4793,3.485,3.4843,3.489,3.4902,3.489,3.4931,3.4896,3.4915,3.4874,3.4947,3.4962,3.4846,3.4845,3.4845,3.4844,3.4844,3.4852,3.4869,3.488,3.4923,3.4957,3.4956,3.4996,3.4989,3.4982,3.5001,3.5013,3.5012,3.5008,3.5008,3.5008,3.5009,3.5009,3.5009,3.5009,3.4927,3.4937,3.4973,3.5,3.5018,3.504,3.5051,3.5068,3.5084,3.5075,3.5075,3.5056,3.4957,3.493,3.5014,3.5013,3.5012,3.5012,3.5012,3.5043,3.5016,3.5071,3.5089,3.5119,3.5151,3.5142,3.5177,3.519,3.5209,3.5186,3.5116,3.5105,3.5096,3.5074,3.519,3.5189,3.519,3.519,3.5106,3.5101,3.5155,3.5184,3.5212,3.5209,3.5268,3.5276,3.528,3.5287,3.527,3.5241,3.5233,3.5226,3.5215,3.5194,3.5337,3.5338,3.5338,3.5176,3.5173,3.5226,3.5231,3.5253,3.5272,3.5326,3.5359,3.5358,3.5344,3.5291,3.5285,3.5238,3.5224,3.5206,3.5189,3.515,0,0]}]]